"read_dt","SO2 (ppb)","flags","PMT voltage (V)","lamp voltage (V)","lamp intensity (Hz)","internal temp (C)","react chamber temp (C)","sample flow (l/min)","pres (mmHg)","SO2 bkg (ppb)","SO2 coefficient"
2013-11-25 00:00:00,2657E-4,5C000000,-0724,0958,11016,021.4,045.2,0.404,738.7,01.18,0.508
2013-11-25 00:01:00,1110E-4,5C000000,-0724,0957,11024,021.2,045.1,0.404,738.7,01.18,0.508
2013-11-25 00:02:00,1142E-4,5C000000,-0724,0958,11046,021.1,045.1,0.404,738.7,01.18,0.508
2013-11-25 00:03:00,1367E-4,5C000000,-0724,0958,10846,021.0,045.1,0.404,738.8,01.18,0.508
2013-11-25 00:04:00,1789E-4,5C000000,-0724,0957,10971,020.9,045.1,0.404,738.7,01.18,0.508
2013-11-25 00:05:00,1936E-4,5C000000,-0724,0958,10950,020.8,045.1,0.404,738.8,01.18,0.508
2013-11-25 00:06:00,1612E-4,5C000000,-0724,0958,10970,020.7,045.1,0.404,738.7,01.18,0.508
2013-11-25 00:07:00,1232E-4,5C000000,-0724,0958,11002,020.7,045.1,0.404,738.7,01.18,0.508
2013-11-25 00:08:00,1459E-4,5C000000,-0724,0958,10896,020.6,045.1,0.404,738.8,01.18,0.508
2013-11-25 00:09:00,1598E-4,5C000000,-0724,0958,10937,020.8,045.1,0.404,738.8,01.18,0.508
2013-11-25 00:10:00,1628E-4,5C000000,-0724,0958,10898,021.0,045.2,0.404,738.7,01.18,0.508
2013-11-25 00:11:00,1742E-4,5C000000,-0724,0958,11029,021.1,045.2,0.405,738.8,01.18,0.508
2013-11-25 00:12:00,2013E-4,5C000000,-0724,0960,10886,021.2,045.2,0.404,738.8,01.18,0.508
2013-11-25 00:13:00,2250E-4,5C000000,-0724,0959,10874,021.3,045.1,0.404,738.7,01.18,0.508
2013-11-25 00:14:00,1958E-4,5C000000,-0724,0959,10921,021.4,045.1,0.405,738.8,01.18,0.508
2013-11-25 00:15:00,1335E-4,5C000000,-0724,0959,10915,021.5,045.2,0.404,738.7,01.18,0.508
2013-11-25 00:16:00,1572E-4,5C000000,-0724,0959,11008,021.6,045.2,0.404,738.8,01.18,0.508
2013-11-25 00:17:00,1496E-4,5C000000,-0724,0959,10916,021.6,045.2,0.404,738.8,01.18,0.508
2013-11-25 00:18:00,1696E-4,5C000000,-0724,0960,10974,021.7,045.2,0.404,738.8,01.18,0.508
2013-11-25 00:19:00,1894E-4,5C000000,-0724,0959,10974,021.7,045.1,0.404,738.9,01.18,0.508
2013-11-25 00:20:00,1459E-4,5C000000,-0724,0959,10920,021.8,045.2,0.404,738.8,01.18,0.508
2013-11-25 00:21:00,2294E-4,5C000000,-0724,0961,10994,021.8,045.2,0.404,738.8,01.18,0.508
2013-11-25 00:22:00,1607E-4,5C000000,-0724,0961,10946,021.8,045.2,0.404,738.9,01.18,0.508
2013-11-25 00:23:00,1546E-4,5C000000,-0724,0959,10968,021.5,045.2,0.404,738.9,01.18,0.508
2013-11-25 00:24:00,1404E-4,5C000000,-0724,0960,10779,021.4,045.1,0.404,738.9,01.18,0.508
2013-11-25 00:25:00,1737E-4,5C000000,-0724,0959,10961,021.3,045.1,0.404,738.9,01.18,0.508
2013-11-25 00:26:00,1574E-4,5C000000,-0724,0959,11037,021.1,045.1,0.403,739.0,01.18,0.508
2013-11-25 00:27:00,1422E-4,5C000000,-0724,0958,10939,020.9,045.1,0.403,739.0,01.18,0.508
2013-11-25 00:28:00,1036E-4,5C000000,-0724,0959,10985,020.8,045.1,0.404,739.0,01.18,0.508
2013-11-25 00:29:00,1250E-4,5C000000,-0724,0958,10807,020.7,045.1,0.404,739.0,01.18,0.508
2013-11-25 00:30:00,1704E-4,5C000000,-0724,0958,10899,020.6,045.1,0.404,739.0,01.18,0.508
2013-11-25 00:31:00,2121E-4,5C000000,-0724,0958,11044,020.5,045.1,0.404,739.0,01.18,0.508
2013-11-25 00:32:00,2366E-4,5C000000,-0724,0958,10909,020.5,045.1,0.405,739.0,01.18,0.508
2013-11-25 00:33:00,1557E-4,5C000000,-0724,0958,10936,020.4,045.1,0.404,739.0,01.18,0.508
2013-11-25 00:34:00,1522E-4,5C000000,-0724,0957,11027,020.3,045.1,0.414,738.2,01.18,0.508
2013-11-25 00:35:00,1386E-4,5C000000,-0724,0958,11033,020.6,045.1,0.408,738.7,01.18,0.508
2013-11-25 00:36:00,2312E-4,5C000000,-0724,0958,10945,020.7,045.2,0.406,738.8,01.18,0.508
2013-11-25 00:37:00,1444E-4,5C000000,-0724,0959,10984,020.8,045.2,0.405,738.9,01.18,0.508
2013-11-25 00:38:00,2170E-4,5C000000,-0724,0959,10921,020.9,045.1,0.405,738.9,01.18,0.508
2013-11-25 00:39:00,7069E-5,5C000000,-0724,0958,10955,021.0,045.1,0.405,738.9,01.18,0.508
2013-11-25 00:40:00,2033E-4,5C000000,-0724,0960,10762,021.1,045.1,0.405,738.9,01.18,0.508
2013-11-25 00:41:00,2213E-4,5C000000,-0724,0960,10754,021.2,045.2,0.404,738.9,01.18,0.508
2013-11-25 00:42:00,2390E-4,5C000000,-0724,0958,10920,021.3,045.2,0.405,739.0,01.18,0.508
2013-11-25 00:43:00,1360E-4,5C000000,-0724,0959,10941,021.3,045.1,0.404,739.0,01.18,0.508
2013-11-25 00:44:00,1661E-4,5C000000,-0724,0959,10903,021.4,045.1,0.404,739.0,01.18,0.508
2013-11-25 00:45:00,2070E-4,5C000000,-0724,0959,11008,021.3,045.1,0.404,739.0,01.18,0.508
2013-11-25 00:46:00,2233E-4,5C000000,-0724,0959,10896,021.4,045.1,0.404,739.0,01.18,0.508
2013-11-25 00:47:00,1757E-4,5C000000,-0724,0959,10844,021.5,045.2,0.404,739.1,01.18,0.508
2013-11-25 00:48:00,2478E-4,5C000000,-0724,0959,10997,021.5,045.1,0.404,739.0,01.18,0.508
2013-11-25 00:49:00,8175E-5,5C000000,-0724,0959,10896,021.6,045.2,0.403,739.0,01.18,0.508
2013-11-25 00:50:00,1588E-4,5C000000,-0724,0960,10803,021.6,045.2,0.403,739.0,01.18,0.508
2013-11-25 00:51:00,2227E-4,5C000000,-0724,0960,10908,021.7,045.2,0.404,739.0,01.18,0.508
2013-11-25 00:52:00,1092E-4,5C000000,-0724,0959,10751,021.7,045.2,0.404,739.1,01.18,0.508
2013-11-25 00:53:00,1591E-4,5C000000,-0724,0960,10942,021.8,045.1,0.404,739.1,01.18,0.508
2013-11-25 00:54:00,1325E-4,5C000000,-0724,0960,10934,021.8,045.1,0.404,739.1,01.18,0.508
2013-11-25 00:55:00,1984E-4,5C000000,-0724,0961,11013,021.9,045.2,0.404,739.1,01.18,0.508
2013-11-25 00:56:00,2284E-4,5C000000,-0724,0961,10866,021.9,045.1,0.403,739.1,01.18,0.508
2013-11-25 00:57:00,1642E-4,5C000000,-0724,0960,10862,021.7,045.1,0.404,739.2,01.18,0.508
2013-11-25 00:58:00,1455E-4,5C000000,-0724,0959,10982,021.5,045.1,0.404,739.2,01.18,0.508
2013-11-25 00:59:00,1577E-4,5C000000,-0724,0959,11054,021.4,045.1,0.403,739.2,01.18,0.508
2013-11-25 01:00:00,2085E-4,5C000000,-0724,0958,10963,021.2,045.1,0.404,739.2,01.18,0.508
2013-11-25 01:01:00,2040E-4,5C000000,-0724,0959,11036,021.2,045.1,0.403,739.2,01.18,0.508
2013-11-25 01:02:00,1320E-4,5C000000,-0724,0958,10999,021.1,045.1,0.404,739.3,01.18,0.508
2013-11-25 01:03:00,2170E-4,5C000000,-0724,0958,10972,021.0,045.1,0.404,739.3,01.18,0.508
2013-11-25 01:04:00,1547E-4,5C000000,-0724,0958,10952,020.9,045.1,0.404,739.3,01.18,0.508
2013-11-25 01:05:00,1605E-4,5C000000,-0724,0958,10785,020.8,045.1,0.405,739.3,01.18,0.508
2013-11-25 01:06:00,1696E-4,5C000000,-0724,0958,10736,020.8,045.1,0.404,739.3,01.18,0.508
2013-11-25 01:07:00,1911E-4,5C000000,-0724,0958,10976,021.1,045.1,0.404,739.3,01.18,0.508
2013-11-25 01:08:00,2257E-4,5C000000,-0724,0959,10938,021.3,045.1,0.404,739.2,01.18,0.508
2013-11-25 01:09:00,2391E-4,5C000000,-0724,0959,10930,021.5,045.2,0.404,739.2,01.18,0.508
2013-11-25 01:10:00,2287E-4,5C000000,-0724,0960,10800,021.7,045.1,0.404,739.2,01.18,0.508
2013-11-25 01:11:00,1085E-4,5C000000,-0724,0960,10980,021.8,045.2,0.403,739.2,01.18,0.508
2013-11-25 01:12:00,8640E-5,5C000000,-0724,0961,10820,022.0,045.2,0.404,739.1,01.18,0.508
2013-11-25 01:13:00,2686E-4,5C000000,-0724,0960,11073,022.1,045.2,0.403,739.1,01.18,0.508
2013-11-25 01:14:00,2526E-4,5C000000,-0724,0960,10815,022.3,045.2,0.403,739.1,01.18,0.508
2013-11-25 01:15:00,1799E-4,5C000000,-0724,0960,10833,022.4,045.2,0.403,739.1,01.18,0.508
2013-11-25 01:16:00,1700E-4,5C000000,-0724,0961,10978,022.6,045.2,0.403,739.1,01.18,0.508
2013-11-25 01:17:00,3699E-4,5C000000,-0724,0961,11031,022.8,045.2,0.402,739.1,01.18,0.508
2013-11-25 01:18:00,2221E-4,5C000000,-0724,0962,10937,022.9,045.2,0.402,739.0,01.18,0.508
2013-11-25 01:19:00,1646E-4,5C000000,-0724,0962,10869,023.0,045.2,0.402,739.0,01.18,0.508
2013-11-25 01:20:00,3243E-4,5C000000,-0724,0962,11016,023.2,045.2,0.401,739.0,01.18,0.508
2013-11-25 01:21:00,2896E-4,5C000000,-0724,0962,10906,023.3,045.2,0.401,739.0,01.18,0.508
2013-11-25 01:22:00,3144E-4,5C000000,-0724,0962,10797,023.4,045.2,0.401,739.0,01.18,0.508
2013-11-25 01:23:00,3139E-4,5C000000,-0724,0963,10836,023.5,045.2,0.401,739.0,01.18,0.508
2013-11-25 01:24:00,2867E-4,5C000000,-0724,0963,10922,023.7,045.2,0.400,738.9,01.18,0.508
2013-11-25 01:25:00,3213E-4,5C000000,-0724,0963,10791,023.8,045.2,0.401,738.9,01.18,0.508
2013-11-25 01:26:00,2215E-4,5C000000,-0724,0964,10838,023.9,045.2,0.400,738.9,01.18,0.508
2013-11-25 01:27:00,2969E-4,5C000000,-0724,0964,10871,024.0,045.2,0.400,739.0,01.18,0.508
2013-11-25 01:28:00,2290E-4,5C000000,-0724,0964,10850,024.1,045.2,0.399,738.9,01.18,0.508
2013-11-25 01:29:00,2953E-4,5C000000,-0724,0963,10779,024.2,045.2,0.400,739.0,01.18,0.508
2013-11-25 01:30:00,2195E-4,5C000000,-0724,0964,10888,024.3,045.2,0.399,738.8,01.18,0.508
2013-11-25 01:31:00,3121E-4,5C000000,-0724,0964,10855,024.4,045.2,0.400,738.9,01.18,0.508
2013-11-25 01:32:00,3770E-4,5C000000,-0724,0965,10877,024.5,045.2,0.398,738.9,01.18,0.508
2013-11-25 01:33:00,3057E-4,5C000000,-0724,0965,10809,024.6,045.2,0.399,738.9,01.18,0.508
2013-11-25 01:34:00,3428E-4,5C000000,-0724,0964,10881,024.7,045.2,0.399,738.9,01.18,0.508
2013-11-25 01:35:00,3847E-4,5C000000,-0724,0965,10906,024.8,045.2,0.398,738.9,01.18,0.508
2013-11-25 01:36:00,3468E-4,5C000000,-0724,0964,10822,024.8,045.2,0.398,738.9,01.18,0.508
2013-11-25 01:37:00,3142E-4,5C000000,-0724,0965,10923,024.9,045.3,0.398,738.9,01.18,0.508
2013-11-25 01:38:00,3617E-4,5C000000,-0724,0965,10868,025.0,045.2,0.398,738.8,01.18,0.508
2013-11-25 01:39:00,3345E-4,5C000000,-0724,0964,10865,025.1,045.2,0.398,738.8,01.18,0.508
2013-11-25 01:40:00,3463E-4,5C000000,-0724,0965,10909,025.1,045.3,0.397,738.8,01.18,0.508
2013-11-25 01:41:00,3781E-4,5C000000,-0724,0966,10911,025.2,045.3,0.397,738.9,01.18,0.508
2013-11-25 01:42:00,4144E-4,5C000000,-0724,0965,10918,025.3,045.2,0.398,738.9,01.18,0.508
2013-11-25 01:43:00,2794E-4,5C000000,-0724,0966,10879,025.3,045.3,0.397,738.9,01.18,0.508
2013-11-25 01:44:00,2618E-4,5C000000,-0724,0966,10916,025.4,045.3,0.397,738.9,01.18,0.508
2013-11-25 01:45:00,3149E-4,5C000000,-0724,0966,10811,025.5,045.3,0.397,738.9,01.18,0.508
2013-11-25 01:46:00,4434E-4,5C000000,-0724,0965,10899,025.5,045.3,0.396,738.8,01.18,0.508
2013-11-25 01:47:00,3335E-4,5C000000,-0724,0965,10849,025.6,045.3,0.396,738.9,01.18,0.508
2013-11-25 01:48:00,4232E-4,5C000000,-0724,0966,10869,025.7,045.3,0.396,738.9,01.18,0.508
2013-11-25 01:49:00,3625E-4,5C000000,-0724,0966,10844,025.7,045.3,0.396,738.8,01.18,0.508
2013-11-25 01:50:00,4199E-4,5C000000,-0724,0965,10790,025.8,045.3,0.396,738.9,01.18,0.508
2013-11-25 01:51:00,3936E-4,5C000000,-0724,0966,10747,025.8,045.3,0.396,738.9,01.18,0.508
2013-11-25 01:52:00,3253E-4,5C000000,-0724,0965,10782,025.9,045.3,0.396,738.8,01.18,0.508
2013-11-25 01:53:00,3580E-4,5C000000,-0724,0966,10870,025.9,045.3,0.396,738.9,01.18,0.508
2013-11-25 01:54:00,2658E-4,5C000000,-0724,0966,10829,025.9,045.3,0.395,738.8,01.18,0.508
2013-11-25 01:55:00,3560E-4,5C000000,-0724,0966,10906,026.0,045.3,0.395,738.8,01.18,0.508
2013-11-25 01:56:00,4170E-4,5C000000,-0724,0967,10782,026.0,045.3,0.396,738.8,01.18,0.508
2013-11-25 01:57:00,4228E-4,5C000000,-0724,0966,10833,026.1,045.3,0.396,738.8,01.18,0.508
2013-11-25 01:58:00,3574E-4,5C000000,-0724,0967,10775,026.1,045.3,0.395,738.8,01.18,0.508
2013-11-25 01:59:00,5050E-4,5C000000,-0724,0966,10881,026.1,045.3,0.395,738.8,01.18,0.508
2013-11-25 02:00:00,4976E-4,5C000000,-0724,0967,10904,026.2,045.3,0.395,738.8,01.18,0.508
2013-11-25 02:01:00,5534E-4,5C000000,-0724,0968,10968,026.2,045.3,0.395,738.8,01.18,0.508
2013-11-25 02:02:00,5640E-4,5C000000,-0724,0966,10794,026.3,045.3,0.395,738.9,01.18,0.508
2013-11-25 02:03:00,4938E-4,5C000000,-0724,0967,10756,026.3,045.3,0.395,738.8,01.18,0.508
2013-11-25 02:04:00,5407E-4,5C000000,-0724,0966,10856,026.3,045.3,0.395,738.8,01.18,0.508
2013-11-25 02:05:00,5303E-4,5C000000,-0724,0967,10909,026.4,045.3,0.394,738.8,01.18,0.508
2013-11-25 02:06:00,5751E-4,5C000000,-0724,0967,10861,026.4,045.3,0.395,738.8,01.18,0.508
2013-11-25 02:07:00,3879E-4,5C000000,-0724,0968,10801,026.4,045.3,0.395,738.9,01.18,0.508
2013-11-25 02:08:00,5664E-4,5C000000,-0724,0967,10571,026.5,045.3,0.395,738.8,01.18,0.508
2013-11-25 02:09:00,6428E-4,5C000000,-0724,0967,10856,026.5,045.3,0.395,738.9,01.18,0.508
2013-11-25 02:10:00,4798E-4,5C000000,-0724,0967,10775,026.5,045.3,0.395,738.9,01.18,0.508
2013-11-25 02:11:00,8535E-4,5C000000,-0724,0968,10886,026.5,045.3,0.394,738.9,01.18,0.508
2013-11-25 02:12:00,4380E-4,5C000000,-0724,0967,10776,026.6,045.3,0.394,738.9,01.18,0.508
2013-11-25 02:13:00,5015E-4,5C000000,-0724,0968,10770,026.6,045.3,0.394,738.9,01.18,0.508
2013-11-25 02:14:00,5189E-4,5C000000,-0724,0967,10920,026.6,045.3,0.394,738.9,01.18,0.508
2013-11-25 02:15:00,4975E-4,5C000000,-0724,0967,10773,026.6,045.3,0.394,738.9,01.18,0.508
2013-11-25 02:16:00,5587E-4,5C000000,-0724,0967,10879,026.6,045.3,0.394,738.9,01.18,0.508
2013-11-25 02:17:00,5221E-4,5C000000,-0724,0967,10793,026.7,045.3,0.394,738.8,01.18,0.508
2013-11-25 02:18:00,5400E-4,5C000000,-0724,0968,10860,026.7,045.3,0.395,738.9,01.18,0.508
2013-11-25 02:19:00,4403E-4,5C000000,-0724,0968,10772,026.7,045.3,0.395,738.9,01.18,0.508
2013-11-25 02:20:00,4736E-4,5C000000,-0724,0967,10801,026.7,045.3,0.395,738.8,01.18,0.508
2013-11-25 02:21:00,4140E-4,5C000000,-0724,0968,10773,026.8,045.3,0.395,738.9,01.18,0.508
2013-11-25 02:22:00,4912E-4,5C000000,-0724,0967,10920,026.8,045.3,0.394,738.8,01.18,0.508
2013-11-25 02:23:00,5213E-4,5C000000,-0724,0968,10815,026.8,045.3,0.394,738.8,01.18,0.508
2013-11-25 02:24:00,5193E-4,5C000000,-0724,0968,10858,026.8,045.3,0.394,738.8,01.18,0.508
2013-11-25 02:25:00,5119E-4,5C000000,-0724,0967,10772,026.8,045.3,0.394,738.8,01.18,0.508
2013-11-25 02:26:00,5009E-4,5C000000,-0724,0967,10830,026.8,045.3,0.394,738.9,01.18,0.508
2013-11-25 02:27:00,4661E-4,5C000000,-0724,0968,10927,026.8,045.3,0.394,738.8,01.18,0.508
2013-11-25 02:28:00,4069E-4,5C000000,-0724,0967,10865,026.9,045.3,0.394,738.8,01.18,0.508
2013-11-25 02:29:00,5153E-4,5C000000,-0724,0968,10959,026.8,045.3,0.394,738.8,01.18,0.508
2013-11-25 02:30:00,5026E-4,5C000000,-0724,0967,10848,026.9,045.3,0.393,738.8,01.18,0.508
2013-11-25 02:31:00,4481E-4,5C000000,-0724,0968,10851,026.9,045.3,0.393,738.8,01.18,0.508
2013-11-25 02:32:00,5422E-4,5C000000,-0724,0967,10943,026.9,045.3,0.393,738.9,01.18,0.508
2013-11-25 02:33:00,5381E-4,5C000000,-0724,0967,10788,026.9,045.3,0.394,738.8,01.18,0.508
2013-11-25 02:34:00,4660E-4,5C000000,-0724,0966,10847,026.9,045.3,0.393,738.8,01.18,0.508
2013-11-25 02:35:00,4794E-4,5C000000,-0724,0967,10911,026.9,045.3,0.393,738.9,01.18,0.508
2013-11-25 02:36:00,5476E-4,5C000000,-0724,0968,10891,026.9,045.3,0.393,738.8,01.18,0.508
2013-11-25 02:37:00,6240E-4,5C000000,-0724,0968,10889,026.9,045.3,0.393,738.8,01.18,0.508
2013-11-25 02:38:00,4958E-4,5C000000,-0724,0967,10893,027.0,045.3,0.393,738.9,01.18,0.508
2013-11-25 02:39:00,4490E-4,5C000000,-0724,0967,10928,027.0,045.3,0.393,738.8,01.18,0.508
2013-11-25 02:40:00,5281E-4,5C000000,-0724,0968,10736,027.0,045.3,0.393,738.8,01.18,0.508
2013-11-25 02:41:00,4539E-4,5C000000,-0724,0968,10792,027.0,045.3,0.393,738.8,01.18,0.508
2013-11-25 02:42:00,4442E-4,5C000000,-0724,0968,10873,027.0,045.3,0.393,738.8,01.18,0.508
2013-11-25 02:43:00,4944E-4,5C000000,-0724,0968,10770,027.0,045.3,0.393,738.9,01.18,0.508
2013-11-25 02:44:00,4488E-4,5C000000,-0724,0968,10875,027.0,045.3,0.393,738.9,01.18,0.508
2013-11-25 02:45:00,4799E-4,5C000000,-0724,0968,10911,027.0,045.3,0.393,738.8,01.18,0.508
2013-11-25 02:46:00,4946E-4,5C000000,-0724,0967,10838,027.0,045.3,0.393,738.8,01.18,0.508
2013-11-25 02:47:00,6120E-4,5C000000,-0724,0968,10821,027.0,045.3,0.393,738.9,01.18,0.508
2013-11-25 02:48:00,5049E-4,5C000000,-0724,0967,10775,027.0,045.3,0.393,738.8,01.18,0.508
2013-11-25 02:49:00,5394E-4,5C000000,-0724,0968,10983,027.0,045.3,0.393,738.8,01.18,0.508
2013-11-25 02:50:00,5606E-4,5C000000,-0724,0967,10835,027.0,045.3,0.394,738.8,01.18,0.508
2013-11-25 02:51:00,4494E-4,5C000000,-0724,0967,10854,027.0,045.3,0.394,738.9,01.18,0.508
2013-11-25 02:52:00,4689E-4,5C000000,-0724,0968,10960,027.1,045.3,0.394,738.9,01.18,0.508
2013-11-25 02:53:00,4460E-4,5C000000,-0724,0969,10807,027.0,045.3,0.394,738.9,01.18,0.508
2013-11-25 02:54:00,5217E-4,5C000000,-0724,0969,10898,027.1,045.3,0.394,738.9,01.18,0.508
2013-11-25 02:55:00,5883E-4,5C000000,-0724,0968,10797,027.1,045.3,0.394,739.0,01.18,0.508
2013-11-25 02:56:00,4530E-4,5C000000,-0724,0968,10885,027.0,045.3,0.394,739.0,01.18,0.508
2013-11-25 02:57:00,5346E-4,5C000000,-0724,0968,10855,027.1,045.3,0.394,739.0,01.18,0.508
2013-11-25 02:58:00,6333E-4,5C000000,-0724,0968,10868,027.1,045.3,0.394,739.0,01.18,0.508
2013-11-25 02:59:00,3699E-4,5C000000,-0724,0969,10881,027.1,045.3,0.394,739.0,01.18,0.508
2013-11-25 03:00:00,5456E-4,5C000000,-0724,0968,10936,027.1,045.3,0.394,739.0,01.18,0.508
2013-11-25 03:01:00,5165E-4,5C000000,-0724,0969,10802,027.1,045.3,0.394,738.9,01.18,0.508
2013-11-25 03:02:00,4892E-4,5C000000,-0724,0968,10744,027.1,045.3,0.393,739.0,01.18,0.508
2013-11-25 03:03:00,4719E-4,5C000000,-0724,0969,10789,027.1,045.3,0.393,739.1,01.18,0.508
2013-11-25 03:04:00,4454E-4,5C000000,-0724,0968,10777,027.1,045.3,0.393,739.0,01.18,0.508
2013-11-25 03:05:00,5266E-4,5C000000,-0724,0968,10795,027.1,045.3,0.393,739.0,01.18,0.508
2013-11-25 03:06:00,4506E-4,5C000000,-0724,0968,10896,027.1,045.3,0.393,739.0,01.18,0.508
2013-11-25 03:07:00,5997E-4,5C000000,-0724,0969,10882,027.1,045.3,0.393,739.1,01.18,0.508
2013-11-25 03:08:00,5011E-4,5C000000,-0724,0968,10936,027.1,045.3,0.394,739.1,01.18,0.508
2013-11-25 03:09:00,5026E-4,5C000000,-0724,0969,10700,027.1,045.3,0.394,739.2,01.18,0.508
2013-11-25 03:10:00,3982E-4,5C000000,-0724,0969,10829,027.1,045.3,0.394,739.2,01.18,0.508
2013-11-25 03:11:00,4014E-4,5C000000,-0724,0967,10661,027.1,045.3,0.394,739.2,01.18,0.508
2013-11-25 03:12:00,5044E-4,5C000000,-0724,0968,10868,027.1,045.3,0.394,739.2,01.18,0.508
2013-11-25 03:13:00,4648E-4,5C000000,-0724,0968,10917,027.1,045.3,0.394,739.1,01.18,0.508
2013-11-25 03:14:00,5414E-4,5C000000,-0724,0968,10849,027.1,045.3,0.394,739.1,01.18,0.508
2013-11-25 03:15:00,4043E-4,5C000000,-0724,0969,11016,027.1,045.3,0.393,739.2,01.18,0.508
2013-11-25 03:16:00,5006E-4,5C000000,-0724,0969,10864,027.1,045.3,0.393,739.1,01.18,0.508
2013-11-25 03:17:00,4898E-4,5C000000,-0724,0968,10811,027.1,045.3,0.393,739.1,01.18,0.508
2013-11-25 03:18:00,4041E-4,5C000000,-0724,0969,10916,027.1,045.3,0.393,739.1,01.18,0.508
2013-11-25 03:19:00,4499E-4,5C000000,-0724,0969,10837,027.1,045.3,0.393,739.2,01.18,0.508
2013-11-25 03:20:00,5414E-4,5C000000,-0724,0968,10927,027.1,045.3,0.394,739.2,01.18,0.508
2013-11-25 03:21:00,4493E-4,5C000000,-0724,0968,10907,027.1,045.3,0.394,739.2,01.18,0.508
2013-11-25 03:22:00,4722E-4,5C000000,-0724,0968,10807,027.1,045.3,0.394,739.1,01.18,0.508
2013-11-25 03:23:00,5091E-4,5C000000,-0724,0968,10714,027.1,045.3,0.394,739.3,01.18,0.508
2013-11-25 03:24:00,5728E-4,5C000000,-0724,0968,10940,027.1,045.3,0.394,739.1,01.18,0.508
2013-11-25 03:25:00,3640E-4,5C000000,-0724,0968,10821,027.1,045.3,0.394,739.3,01.18,0.508
2013-11-25 03:26:00,5476E-4,5C000000,-0724,0969,10852,027.0,045.3,0.394,739.1,01.18,0.508
2013-11-25 03:27:00,5615E-4,5C000000,-0724,0968,10843,027.1,045.3,0.393,739.3,01.18,0.508
2013-11-25 03:28:00,4671E-4,5C000000,-0724,0969,10772,027.1,045.3,0.393,739.0,01.18,0.508
2013-11-25 03:29:00,4910E-4,5C000000,-0724,0969,10987,027.1,045.3,0.393,739.0,01.18,0.508
2013-11-25 03:30:00,4221E-4,5C000000,-0724,0968,10845,027.1,045.3,0.394,739.2,01.18,0.508
2013-11-25 03:31:00,4488E-4,5C000000,-0724,0969,10870,027.1,045.3,0.394,739.0,01.18,0.508
2013-11-25 03:32:00,4111E-4,5C000000,-0724,0969,10885,027.0,045.3,0.394,739.0,01.18,0.508
2013-11-25 03:33:00,4427E-4,5C000000,-0724,0969,10787,027.0,045.3,0.394,739.2,01.18,0.508
2013-11-25 03:34:00,3629E-4,5C000000,-0724,0969,10944,027.1,045.3,0.394,739.0,01.18,0.508
2013-11-25 03:35:00,3790E-4,5C000000,-0724,0969,10804,027.1,045.3,0.394,739.3,01.18,0.508
2013-11-25 03:36:00,4695E-4,5C000000,-0724,0968,10916,027.1,045.3,0.393,739.2,01.18,0.508
2013-11-25 03:37:00,4275E-4,5C000000,-0724,0969,10864,027.0,045.3,0.393,739.1,01.18,0.508
2013-11-25 03:38:00,3415E-4,5C000000,-0724,0968,10835,027.0,045.3,0.393,739.2,01.18,0.508
2013-11-25 03:39:00,3560E-4,5C000000,-0724,0968,10795,027.1,045.3,0.394,739.1,01.18,0.508
2013-11-25 03:40:00,4366E-4,5C000000,-0724,0968,10876,027.0,045.3,0.394,739.1,01.18,0.508
2013-11-25 03:41:00,4125E-4,5C000000,-0724,0968,10836,027.0,045.3,0.394,739.3,01.18,0.508
2013-11-25 03:42:00,4131E-4,5C000000,-0724,0968,10826,027.1,045.3,0.393,739.0,01.18,0.508
2013-11-25 03:43:00,4098E-4,5C000000,-0724,0969,10878,027.0,045.3,0.393,739.3,01.18,0.508
2013-11-25 03:44:00,4325E-4,5C000000,-0724,0968,10822,027.1,045.3,0.394,739.1,01.18,0.508
2013-11-25 03:45:00,3551E-4,5C000000,-0724,0969,10840,027.0,045.3,0.394,739.1,01.18,0.508
2013-11-25 03:46:00,2928E-4,5C000000,-0724,0968,10840,027.0,045.3,0.394,739.3,01.18,0.508
2013-11-25 03:47:00,4681E-4,5C000000,-0724,0968,10861,027.0,045.3,0.394,739.3,01.18,0.508
2013-11-25 03:48:00,3567E-4,5C000000,-0724,0969,10855,027.0,045.3,0.394,739.3,01.18,0.508
2013-11-25 03:49:00,4243E-4,5C000000,-0724,0969,10790,027.0,045.3,0.394,739.2,01.18,0.508
2013-11-25 03:50:00,3045E-4,5C000000,-0724,0969,10805,027.0,045.3,0.394,739.3,01.18,0.508
2013-11-25 03:51:00,3621E-4,5C000000,-0724,0969,10914,027.0,045.3,0.393,739.3,01.18,0.508
2013-11-25 03:52:00,3994E-4,5C000000,-0724,0968,10841,027.0,045.3,0.394,739.2,01.18,0.508
2013-11-25 03:53:00,2471E-4,5C000000,-0724,0968,10893,027.0,045.3,0.394,739.2,01.18,0.508
2013-11-25 03:54:00,3560E-4,5C000000,-0724,0968,10814,027.0,045.3,0.394,739.2,01.18,0.508
2013-11-25 03:55:00,3690E-4,5C000000,-0724,0969,10863,027.0,045.3,0.394,739.2,01.18,0.508
2013-11-25 03:56:00,3459E-4,5C000000,-0724,0969,10842,027.0,045.3,0.394,739.3,01.18,0.508
2013-11-25 03:57:00,3673E-4,5C000000,-0724,0968,10817,027.0,045.3,0.394,739.1,01.18,0.508
2013-11-25 03:58:00,3467E-4,5C000000,-0724,0968,10795,027.0,045.3,0.394,739.1,01.18,0.508
2013-11-25 03:59:00,4052E-4,5C000000,-0724,0967,10865,027.0,045.3,0.393,739.1,01.18,0.508
2013-11-25 04:00:00,3372E-4,5C000000,-0724,0967,10908,027.0,045.3,0.393,738.9,01.18,0.508
2013-11-25 04:01:00,2856E-4,5C000000,-0724,0968,10857,027.0,045.3,0.394,739.0,01.18,0.508
2013-11-25 04:02:00,2493E-4,5C000000,-0724,0969,10729,027.0,045.3,0.394,739.1,01.18,0.508
2013-11-25 04:03:00,2795E-4,5C000000,-0724,0969,10940,027.0,045.3,0.394,739.1,01.18,0.508
2013-11-25 04:04:00,2832E-4,5C000000,-0724,0969,10829,026.9,045.3,0.394,739.2,01.18,0.508
2013-11-25 04:05:00,2494E-4,5C000000,-0724,0968,10959,026.9,045.3,0.394,739.2,01.18,0.508
2013-11-25 04:06:00,3787E-4,5C000000,-0724,0968,10807,026.9,045.3,0.394,739.0,01.18,0.508
2013-11-25 04:07:00,3174E-4,5C000000,-0724,0968,10797,026.9,045.3,0.394,739.3,01.18,0.508
2013-11-25 04:08:00,2856E-4,5C000000,-0724,0968,10928,026.9,045.3,0.394,739.1,01.18,0.508
2013-11-25 04:09:00,4572E-4,5C000000,-0724,0968,10766,026.9,045.3,0.393,739.0,01.18,0.508
2013-11-25 04:10:00,3330E-4,5C000000,-0724,0968,10895,026.9,045.3,0.394,739.2,01.18,0.508
2013-11-25 04:11:00,3044E-4,5C000000,-0724,0968,10910,026.9,045.3,0.394,738.8,01.18,0.508
2013-11-25 04:12:00,3504E-4,5C000000,-0724,0968,10902,026.9,045.3,0.394,739.3,01.18,0.508
2013-11-25 04:13:00,4469E-4,5C000000,-0724,0969,10835,026.9,045.3,0.394,739.0,01.18,0.508
2013-11-25 04:14:00,3658E-4,5C000000,-0724,0969,10984,026.9,045.3,0.394,739.3,01.18,0.508
2013-11-25 04:15:00,3720E-4,5C000000,-0724,0968,10940,026.9,045.3,0.394,739.4,01.18,0.508
2013-11-25 04:16:00,3067E-4,5C000000,-0724,0967,10755,026.9,045.3,0.394,739.0,01.18,0.508
2013-11-25 04:17:00,3953E-4,5C000000,-0724,0967,10815,026.9,045.3,0.394,739.4,01.18,0.508
2013-11-25 04:18:00,3094E-4,5C000000,-0724,0969,10821,026.9,045.3,0.394,739.3,01.18,0.508
2013-11-25 04:19:00,2442E-4,5C000000,-0724,0969,10920,026.9,045.3,0.394,739.1,01.18,0.508
2013-11-25 04:20:00,2764E-4,5C000000,-0724,0968,10675,026.9,045.3,0.394,739.4,01.18,0.508